Air Resources Laboratory banner image
Air Resources Laboratory web site National Oceanic and Atmospheric Administration (NOAA)

in roundup


Office: IND

ASUS43 KIND 110800
RWRIN

WEATHER ROUNDUP FOR INDIANA
NATIONAL WEATHER SERVICE INDIANAPOLIS IN
400 AM EDT THU AUG 11 2022

NOTE: "FAIR" INDICATES FEW OR NO CLOUDS BELOW 12,000 FEET WITH NO
SIGNIFICANT WEATHER AND/OR OBSTRUCTIONS TO VISIBILITY.

* - STATION DOES NOT REPORT WEATHER SUCH AS PRECIPITATION OR FOG.

+ - STATION NOT QUALITY CONTROLLED BY THE NATIONAL WEATHER SERVICE.
    USE DATA WITH CAUTION...ESPECIALLY DEWPOINT AND RELATIVE
    HUMIDITY OBSERVATIONS.

INZ001>003-010>013-019-020-110900-
NORTHWEST INDIANA

CITY           SKY/WX    TMP DP  RH WIND       PRES   REMARKS
GARY /AIRPORT/ CLEAR     67  64  91 CALM      30.11F
KNOX *+        CLEAR     59  59 100 CALM      30.10S
MONTICELLO +   CLEAR     63  61  94 CALM      30.11S
RENSSELAER +   CLEAR     59  59 100 CALM      30.13S FOG

$$

LMZ046-743>745-110900-
SOUTHERN LAKE MICHIGAN

STATION/POSITION TIME  TEMP    WIND        PRES    WAVE
                       AIR SEA DIR/SP/G            HT
                 (UTC) (F)     (DEG/KT/KT) (MB)    (FT)
BURNS HARBOR     0730   71      CALM  /  1 1019.6F
MICHIGAN CITY    0740   70      CALM  /  1 1018.0F
5NW MICH CITY    0740   75                   N/A     1

$$

INZ004-005-014>016-021>024-110900-
NORTH CENTRAL INDIANA

CITY           SKY/WX    TMP DP  RH WIND       PRES   REMARKS
ELKHART        CLEAR     63  62  96 CALM      30.11F
GOSHEN         CLEAR     63  60  90 CALM      30.10F
PERU/GRISSOM   CLEAR     60  58  92 CALM      30.10F
SOUTH BEND     CLEAR     65  61  87 SW3       30.11F

$$

INZ006>009-017-018-025>027-110900-
NORTHEAST INDIANA

CITY           SKY/WX    TMP DP  RH WIND       PRES   REMARKS
ANGOLA *+      MOCLDY    64  61  88 NW7       30.09F
FORT WAYNE     PTCLDY    61  59  93 SW3       30.11S
KENDALLVILLE + FAIR      63  63  99 CALM      30.11S

$$

INZ028-029-035-036-043>045-051>053-110900-
WEST CENTRAL INDIANA

CITY           SKY/WX    TMP DP  RH WIND       PRES   REMARKS
CRAWFORDSVL +    N/A     56  52  88 CALM      30.13F FOG
LAFAYETTE      PTCLDY    62  62 100 CALM      30.11S FOG
TERRE HAUTE    CLEAR     60  59  96 CALM      30.12F

$$

INZ030>032-037>040-046>048-054>057-064-065-110900-
CENTRAL INDIANA

CITY           SKY/WX    TMP DP  RH WIND       PRES   REMARKS
ANDERSON +       N/A     60  59  97 CALM      30.12F FOG
GREENWOOD *+   CLEAR     63  63 100 CALM      30.13S
INDIANAPOLIS   CLEAR     65  60  84 NW6       30.11F
-EAGLE CREEK   CLEAR     66  61  84 W6        30.11F
KOKOMO +       CLEAR     60  32  34 CALM      30.13S
SHELBYVILLE    CLEAR     63  60  90 CALM      30.11S

$$

INZ033-034-041-042-049-050-058-059-110900-
EAST CENTRAL INDIANA

CITY           SKY/WX    TMP DP  RH WIND       PRES   REMARKS
MUNCIE         CLEAR     62  57  83 CALM      30.11F
RICHMOND +     FAIR      61  61 100 CALM      30.13S

$$

INZ060-061-067>069-081>083-085>088-110900-
SOUTHWEST INDIANA

CITY           SKY/WX    TMP DP  RH WIND       PRES   REMARKS
EVANSVILLE     CLOUDY    72  66  81 N5        30.11S
HUNTINGBURG +  CLEAR     68  67  96 NW3       30.11S

$$

INZ062-063-066-070>080-084-089>092-110900-
SOUTH CENTRAL AND SOUTHEAST INDIANA

CITY           SKY/WX    TMP DP  RH WIND       PRES   REMARKS
BATESVILLE +   CLEAR     61  61 100 CALM      30.12S
BLOOMINGTON    CLEAR     63  61  93 CALM      30.12R
FRENCH LICK *+ CLEAR    N/A N/A N/A CALM      30.12R

$$



ASUS43 KIND 110800
RWRIN

WEATHER ROUNDUP FOR INDIANA
NATIONAL WEATHER SERVICE INDIANAPOLIS IN
400 AM EDT THU AUG 11 2022

NOTE: "FAIR" INDICATES FEW OR NO CLOUDS BELOW 12,000 FEET WITH NO
SIGNIFICANT WEATHER AND/OR OBSTRUCTIONS TO VISIBILITY.

* - STATION DOES NOT REPORT WEATHER SUCH AS PRECIPITATION OR FOG.

+ - STATION NOT QUALITY CONTROLLED BY THE NATIONAL WEATHER SERVICE.
    USE DATA WITH CAUTION...ESPECIALLY DEWPOINT AND RELATIVE
    HUMIDITY OBSERVATIONS.

INZ001>003-010>013-019-020-110900-
NORTHWEST INDIANA

CITY           SKY/WX    TMP DP  RH WIND       PRES   REMARKS
GARY /AIRPORT/ CLEAR     67  64  91 CALM      30.11F
KNOX *+        CLEAR     59  59 100 CALM      30.10S
MONTICELLO +   CLEAR     63  61  94 CALM      30.11S
RENSSELAER +   CLEAR     59  59 100 CALM      30.13S FOG

$$

LMZ046-743>745-110900-
SOUTHERN LAKE MICHIGAN

STATION/POSITION TIME  TEMP WIND        PRES
                       AIR  DIR/SP/G
                 (UTC) (F)  (DEG/KT/KT) (MB)
BURNS HARBOR     0730   71   CALM  /  1 1019.6F
MICHIGAN CITY    0740   70   CALM  /  1 1018.0F
5NW MICH CITY    0740   75                N/A

$$

INZ004-005-014>016-021>024-110900-
NORTH CENTRAL INDIANA

CITY           SKY/WX    TMP DP  RH WIND       PRES   REMARKS
ELKHART        CLEAR     63  62  96 CALM      30.11F
GOSHEN         CLEAR     63  60  90 CALM      30.10F
PERU/GRISSOM   CLEAR     60  58  92 CALM      30.10F
SOUTH BEND     CLEAR     65  61  87 SW3       30.11F

$$

INZ006>009-017-018-025>027-110900-
NORTHEAST INDIANA

CITY           SKY/WX    TMP DP  RH WIND       PRES   REMARKS
ANGOLA *+      MOCLDY    64  61  88 NW7       30.09F
FORT WAYNE     PTCLDY    61  59  93 SW3       30.11S
KENDALLVILLE + FAIR      63  63  99 CALM      30.11S

$$

INZ028-029-035-036-043>045-051>053-110900-
WEST CENTRAL INDIANA

CITY           SKY/WX    TMP DP  RH WIND       PRES   REMARKS
CRAWFORDSVL +    N/A     56  52  88 CALM      30.13F FOG
LAFAYETTE      PTCLDY    62  62 100 CALM      30.11S FOG
TERRE HAUTE    CLEAR     60  59  96 CALM      30.12F

$$

INZ030>032-037>040-046>048-054>057-064-065-110900-
CENTRAL INDIANA

CITY           SKY/WX    TMP DP  RH WIND       PRES   REMARKS
ANDERSON         N/A     60  59  97 CALM      30.12F FOG
GREENWOOD *+   CLEAR     63  63 100 CALM      30.13S
INDIANAPOLIS   CLEAR     65  60  84 NW6       30.11F
-EAGLE CREEK   CLEAR     66  61  84 W6        30.11F
KOKOMO +       CLEAR     60  32  34 CALM      30.13S
SHELBYVILLE    CLEAR     63  60  90 CALM      30.11S

$$

INZ033-034-041-042-049-050-058-059-110900-
EAST CENTRAL INDIANA

CITY           SKY/WX    TMP DP  RH WIND       PRES   REMARKS
MUNCIE         CLEAR     62  57  83 CALM      30.11F

$$

INZ060-061-067>069-081>083-085>088-110900-
SOUTHWEST INDIANA

CITY           SKY/WX    TMP DP  RH WIND       PRES   REMARKS
EVANSVILLE     CLOUDY    72  66  81 N5        30.11S
HUNTINGBURG *+ CLEAR     68  67  96 NW3       30.11S

$$

INZ062-063-066-070>080-084-089>092-110900-
SOUTH CENTRAL AND SOUTHEAST INDIANA

CITY           SKY/WX    TMP DP  RH WIND       PRES   REMARKS
BLOOMINGTON    CLEAR     63  61  93 CALM      30.12R

$$



ASUS43 KIND 110809
RWRIN

WEATHER ROUNDUP FOR INDIANA
NATIONAL WEATHER SERVICE INDIANAPOLIS IN
400 AM EDT THU AUG 11 2022

NOTE: "FAIR" INDICATES FEW OR NO CLOUDS BELOW 12,000 FEET WITH NO
SIGNIFICANT WEATHER AND/OR OBSTRUCTIONS TO VISIBILITY.

* - STATION DOES NOT REPORT WEATHER SUCH AS PRECIPITATION OR FOG.

+ - STATION NOT QUALITY CONTROLLED BY THE NATIONAL WEATHER SERVICE.
    USE DATA WITH CAUTION...ESPECIALLY DEWPOINT AND RELATIVE
    HUMIDITY OBSERVATIONS.

INZ001>003-010>013-019-020-110900-
NORTHWEST INDIANA

CITY           SKY/WX    TMP DP  RH WIND       PRES   REMARKS
GARY /AIRPORT/ CLEAR     67  64  91 CALM      30.11F
KNOX *+        CLEAR     59  59 100 CALM      30.10S
LA PORTE +     CLEAR     62  61  99 W3        30.11F
MICHIGAN CITY+ CLEAR     63  61  94 CALM      30.10F
MONTICELLO +   CLEAR     62  61  96 CALM      30.11S
RENSSELAER +   CLEAR     59  59 100 CALM      30.13S FOG
VALPARAISO     CLEAR     65  62  90 W5        30.11F

$$

LMZ046-743>745-110900-
SOUTHERN LAKE MICHIGAN

STATION/POSITION TIME  TEMP    WIND        PRES    WAVE
                       AIR SEA DIR/SP/G            HT
                 (UTC) (F)     (DEG/KT/KT) (MB)    (FT)
BURNS HARBOR     0730   71      CALM  /  1 1019.6F
MICHIGAN CITY    0740   70      CALM  /  1 1018.0F
5NW MICH CITY    0750   75                   N/A     1

$$

INZ004-005-014>016-021>024-110900-
NORTH CENTRAL INDIANA

CITY           SKY/WX    TMP DP  RH WIND       PRES   REMARKS
ELKHART        CLEAR     63  62  96 CALM      30.11F
GOSHEN         CLEAR     63  60  90 CALM      30.10F
LOGANSPORT +   CLEAR     57  55  94 CALM      30.12S
PERU/GRISSOM   CLEAR     60  58  92 CALM      30.10F
PLYMOUTH *+    CLEAR     63  61  94 CALM      30.10S
ROCHESTER +    CLEAR     63  61  94 CALM      30.11S
SOUTH BEND     CLEAR     65  61  87 SW3       30.11F

$$

INZ006>009-017-018-025>027-110900-
NORTHEAST INDIANA

CITY           SKY/WX    TMP DP  RH WIND       PRES   REMARKS
ANGOLA *+      MOCLDY    64  61  88 NW7       30.09F
AUBURN +       CLEAR     61  59  94 CALM      30.11R
FORT WAYNE     PTCLDY    61  59  93 SW3       30.11S
HUNTINGTON +   CLEAR     61  61 100 CALM      30.11S
KENDALLVILLE + FAIR      63  63  99 CALM      30.11S

$$

INZ028-029-035-036-043>045-051>053-110900-
WEST CENTRAL INDIANA

CITY           SKY/WX    TMP DP  RH WIND       PRES   REMARKS
CRAWFORDSVL +    N/A     56  52  88 CALM      30.13F FOG
GREENCASTLE +  FAIR      63  61  95 CALM      30.13F
LAFAYETTE      FOG       62  62 100 CALM      30.11S VSB 3/4
TERRE HAUTE    CLEAR     60  59  96 CALM      30.12F

$$

INZ030>032-037>040-046>048-054>057-064-065-110900-
CENTRAL INDIANA

CITY           SKY/WX    TMP DP  RH WIND       PRES   REMARKS
ANDERSON +       N/A     59  59  99 CALM      30.12F FOG
FISHERS *+     CLEAR     63  63 100 CALM      30.12F
FRANKFORT +    CLOUDY    59  59 100 SW3       30.11F FOG
GREENWOOD *+   CLEAR     63  63 100 CALM      30.12F
INDIANAPOLIS   CLEAR     65  60  84 NW6       30.11F
-EAGLE CREEK   CLEAR     66  61  84 W6        30.11F
KOKOMO +       CLEAR     60  32  34 CALM      30.13S
MARION +       CLEAR     59  59 100 CALM      30.13S
MT COMFORT *+  CLEAR     59  59 100 CALM      30.12F
SHELBYVILLE    CLEAR     63  60  90 CALM      30.11S

$$

INZ033-034-041-042-049-050-058-059-110900-
EAST CENTRAL INDIANA

CITY           SKY/WX    TMP DP  RH WIND       PRES   REMARKS
MUNCIE         CLEAR     62  57  83 CALM      30.11F
RICHMOND +     FAIR      55  55 100 CALM      30.13S FOG

$$

INZ060-061-067>069-081>083-085>088-110900-
SOUTHWEST INDIANA

CITY           SKY/WX    TMP DP  RH WIND       PRES   REMARKS
EVANSVILLE     CLOUDY    72  66  81 N5        30.11S
HUNTINGBURG +  CLEAR     68  67  96 NW3       30.11S
WASHINGTON +   MOCLDY    65  65  99 CALM      30.12R

$$

INZ062-063-066-070>080-084-089>092-110900-
SOUTH CENTRAL AND SOUTHEAST INDIANA

CITY           SKY/WX    TMP DP  RH WIND       PRES   REMARKS
BATESVILLE +   CLEAR     61  61 100 CALM      30.12S
BLOOMINGTON    CLEAR     63  61  93 CALM      30.12R
FRENCH LICK *+ CLEAR    N/A N/A N/A CALM      30.12R
JEFFERSONVL +  FAIR      66  66 100 CALM      30.10S FOG
MADISON *+     CLEAR     63  63 100 CALM      30.13S FOG

$$



ASUS43 KIND 110810
RWRIN

WEATHER ROUNDUP FOR INDIANA
NATIONAL WEATHER SERVICE INDIANAPOLIS IN
400 AM EDT THU AUG 11 2022

NOTE: "FAIR" INDICATES FEW OR NO CLOUDS BELOW 12,000 FEET WITH NO
SIGNIFICANT WEATHER AND/OR OBSTRUCTIONS TO VISIBILITY.

* - STATION DOES NOT REPORT WEATHER SUCH AS PRECIPITATION OR FOG.

+ - STATION NOT QUALITY CONTROLLED BY THE NATIONAL WEATHER SERVICE.
    USE DATA WITH CAUTION...ESPECIALLY DEWPOINT AND RELATIVE
    HUMIDITY OBSERVATIONS.

INZ001>003-010>013-019-020-110900-
NORTHWEST INDIANA

CITY           SKY/WX    TMP DP  RH WIND       PRES   REMARKS
GARY /AIRPORT/ CLEAR     67  64  91 CALM      30.11F
KNOX *+        CLEAR     59  59 100 CALM      30.10S
LA PORTE +     CLEAR     62  61  99 W3        30.11F
MICHIGAN CITY+ CLEAR     63  61  94 CALM      30.10F
MONTICELLO +   CLEAR     62  61  96 CALM      30.11S
RENSSELAER +   CLEAR     59  59 100 CALM      30.13S FOG
VALPARAISO     CLEAR     65  62  90 W5        30.11F

$$

LMZ046-743>745-110900-
SOUTHERN LAKE MICHIGAN

STATION/POSITION TIME  TEMP WIND        PRES
                       AIR  DIR/SP/G
                 (UTC) (F)  (DEG/KT/KT) (MB)
BURNS HARBOR     0730   71   CALM  /  1 1019.6F
MICHIGAN CITY    0740   70   CALM  /  1 1018.0F
5NW MICH CITY    0750   75                N/A

$$

INZ004-005-014>016-021>024-110900-
NORTH CENTRAL INDIANA

CITY           SKY/WX    TMP DP  RH WIND       PRES   REMARKS
ELKHART        CLEAR     63  62  96 CALM      30.11F
GOSHEN         CLEAR     63  60  90 CALM      30.10F
LOGANSPORT +   CLEAR     57  55  94 CALM      30.12S
PERU/GRISSOM   CLEAR     60  58  92 CALM      30.10F
ROCHESTER +    CLEAR     63  61  94 CALM      30.11S
SOUTH BEND     CLEAR     65  61  87 SW3       30.11F

$$

INZ006>009-017-018-025>027-110900-
NORTHEAST INDIANA

CITY           SKY/WX    TMP DP  RH WIND       PRES   REMARKS
ANGOLA *+      MOCLDY    64  61  88 NW7       30.09F
AUBURN +       CLEAR     61  59  94 CALM      30.11R
FORT WAYNE     PTCLDY    61  59  93 SW3       30.11S
HUNTINGTON +   CLEAR     61  61 100 CALM      30.11S
KENDALLVILLE + FAIR      63  63  99 CALM      30.11S

$$

INZ028-029-035-036-043>045-051>053-110900-
WEST CENTRAL INDIANA

CITY           SKY/WX    TMP DP  RH WIND       PRES   REMARKS
CRAWFORDSVL +    N/A     56  52  88 CALM      30.13F FOG
LAFAYETTE      FOG       62  62 100 CALM      30.11S VSB 3/4
TERRE HAUTE    CLEAR     60  59  96 CALM      30.12F

$$

INZ030>032-037>040-046>048-054>057-064-065-110900-
CENTRAL INDIANA

CITY           SKY/WX    TMP DP  RH WIND       PRES   REMARKS
ANDERSON         N/A     59  59  99 CALM      30.12F FOG
FISHERS *+     CLEAR     63  63 100 CALM      30.12F
FRANKFORT +    CLOUDY    59  59 100 SW3       30.11F FOG
GREENWOOD *+   CLEAR     63  63 100 CALM      30.12F
INDIANAPOLIS   CLEAR     65  60  84 NW6       30.11F
-EAGLE CREEK   CLEAR     66  61  84 W6        30.11F
KOKOMO +       CLEAR     60  32  34 CALM      30.13S
MT COMFORT *+  CLEAR     59  59 100 CALM      30.12F
SHELBYVILLE    CLEAR     63  60  90 CALM      30.11S
ZIONSVILLE +   CLEAR     58  58  99 CALM      30.13F

$$

INZ033-034-041-042-049-050-058-059-110900-
EAST CENTRAL INDIANA

CITY           SKY/WX    TMP DP  RH WIND       PRES   REMARKS
MUNCIE         CLEAR     62  57  83 CALM      30.11F

$$

INZ060-061-067>069-081>083-085>088-110900-
SOUTHWEST INDIANA

CITY           SKY/WX    TMP DP  RH WIND       PRES   REMARKS
EVANSVILLE     CLOUDY    72  66  81 N5        30.11S
HUNTINGBURG *+ CLEAR     68  67  96 NW3       30.11S
WASHINGTON +   MOCLDY    65  65  99 CALM      30.12R

$$

INZ062-063-066-070>080-084-089>092-110900-
SOUTH CENTRAL AND SOUTHEAST INDIANA

CITY           SKY/WX    TMP DP  RH WIND       PRES   REMARKS
BLOOMINGTON    CLEAR     63  61  93 CALM      30.12R
MADISON *+     CLEAR     63  63 100 CALM      30.13S FOG

$$



ASUS43 KIND 110859
RWRIN

WEATHER ROUNDUP FOR INDIANA
NATIONAL WEATHER SERVICE INDIANAPOLIS IN
500 AM EDT THU AUG 11 2022

NOTE: "FAIR" INDICATES FEW OR NO CLOUDS BELOW 12,000 FEET WITH NO
SIGNIFICANT WEATHER AND/OR OBSTRUCTIONS TO VISIBILITY.

* - STATION DOES NOT REPORT WEATHER SUCH AS PRECIPITATION OR FOG.

+ - STATION NOT QUALITY CONTROLLED BY THE NATIONAL WEATHER SERVICE.
    USE DATA WITH CAUTION...ESPECIALLY DEWPOINT AND RELATIVE
    HUMIDITY OBSERVATIONS.

INZ001>003-010>013-019-020-111000-
NORTHWEST INDIANA

CITY           SKY/WX    TMP DP  RH WIND       PRES   REMARKS
GARY /AIRPORT/ CLEAR     67  64  91 W3        30.11S
KNOX *+        CLEAR     61  61 100 CALM      30.10S
MONTICELLO +   CLEAR     60  59  96 CALM      30.11S
RENSSELAER +   CLEAR     59  59 100 SW3       30.12F

$$

LMZ046-743>745-111000-
SOUTHERN LAKE MICHIGAN

STATION/POSITION TIME  TEMP    WIND        PRES    WAVE
                       AIR SEA DIR/SP/G            HT
                 (UTC) (F)     (DEG/KT/KT) (MB)    (FT)
BURNS HARBOR     0830   71      CALM  /  1 1019.6S
MICHIGAN CITY    0840   70      CALM  /  1 1017.9F
5NW MICH CITY    0840   75                   N/A     1

$$

INZ004-005-014>016-021>024-111000-
NORTH CENTRAL INDIANA

CITY           SKY/WX    TMP DP  RH WIND       PRES   REMARKS
ELKHART        CLEAR     63  62  96 CALM      30.10F
GOSHEN         CLEAR     62  60  93 CALM      30.10S
PERU/GRISSOM   CLEAR     60  58  95 SW5       30.10S
SOUTH BEND     MOCLDY    65  61  87 S3        30.10F

$$

INZ006>009-017-018-025>027-111000-
NORTHEAST INDIANA

CITY           SKY/WX    TMP DP  RH WIND       PRES   REMARKS
ANGOLA *+      CLOUDY    64  61  88 CALM      30.10S
FORT WAYNE     PTCLDY    60  58  92 W3        30.10F
KENDALLVILLE + FAIR     N/A N/A N/A CALM      30.11S

$$

INZ028-029-035-036-043>045-051>053-111000-
WEST CENTRAL INDIANA

CITY           SKY/WX    TMP DP  RH WIND       PRES   REMARKS
CRAWFORDSVL +  MOCLDY    55  54  94 CALM      30.13S FOG
LAFAYETTE      CLEAR     62  61  96 CALM      30.11F FOG
TERRE HAUTE    PTCLDY    60  59  96 CALM      30.12S

$$

INZ030>032-037>040-046>048-054>057-064-065-111000-
CENTRAL INDIANA

CITY           SKY/WX    TMP DP  RH WIND       PRES   REMARKS
ANDERSON +     FOG       60  59  97 CALM      30.12S VSB 3/4
GREENWOOD *+   CLEAR     63  63 100 CALM      30.12S
INDIANAPOLIS   CLEAR     64  60  87 NW5       30.12R
-EAGLE CREEK   CLEAR     66  62  87 NW5       30.11S
KOKOMO +       CLEAR     61 N/A N/A W3        30.12F
SHELBYVILLE    CLEAR     62  58  86 CALM      30.11S

$$

INZ033-034-041-042-049-050-058-059-111000-
EAST CENTRAL INDIANA

CITY           SKY/WX    TMP DP  RH WIND       PRES   REMARKS
MUNCIE         CLEAR     60  56  86 CALM      30.11S
RICHMOND +     FOG       55  55 100 CALM      30.12F VSB 1/4

$$

INZ060-061-067>069-081>083-085>088-111000-
SOUTHWEST INDIANA

CITY           SKY/WX    TMP DP  RH WIND       PRES   REMARKS
EVANSVILLE     CLOUDY    71  65  81 N7        30.11S
HUNTINGBURG +  CLOUDY    69  67  93 CALM      30.11S

$$

INZ062-063-066-070>080-084-089>092-111000-
SOUTH CENTRAL AND SOUTHEAST INDIANA

CITY           SKY/WX    TMP DP  RH WIND       PRES   REMARKS
BATESVILLE +   CLEAR     59  61 100 CALM      30.12S FOG
BLOOMINGTON    CLEAR     62  60  93 CALM      30.12S FOG
FRENCH LICK *+ MOCLDY   N/A N/A N/A CALM      30.12S

$$